Regional Weather Roundup
Issued by NWS Upton, NY

Current Version | Previous Version | Graphics & Text | Print | Product List | Glossary Off
Versions: 1 2 3 4 5 6 7 8 9 10 11 12 13 14 15 16 17 18 19 20 21 22 23 24 25 26 27 28 29 30 31 32 33 34 35 36 37 38 39 40 41 42 43 44 45 46 47 48 49 50

000
ASUS41 KOKX 211305
RWROKX

REGIONAL WEATHER ROUNDUP
NATIONAL WEATHER SERVICE NEW YORK NY
900 AM EDT SUN SEP 21 2014

NOTE: "FAIR" INDICATES FEW OR NO CLOUDS BELOW 12,000 FEET WITH NO
SIGNIFICANT WEATHER AND/OR OBSTRUCTIONS TO VISIBILITY.

NYZ071-072-176-178-NJZ106-104-211400-
NEW YORK CITY METRO AREA


CITY           SKY/WX    TMP DP  RH WIND       PRES   REMARKS
CENTRAL PARK   CLOUDY    69  66  90 CALM      29.91F FOG
LAGUARDIA APRT PTSUNNY   70  66  88 CALM      29.88F
KENNEDY INTL   CLOUDY    72  70  94 NE5       29.89F
NEWARK/LIBERTY CLOUDY    70  67  90 CALM      29.89F FOG
BRNX BOT. GARD   N/A     68  66  94 SE3       29.91F
TETERBORO      CLOUDY    70  66  87 CALM      29.88F FOG
$$

NYZ177-179-078>081-211400-
LONG ISLAND NEW YORK

CITY           SKY/WX    TMP DP  RH WIND       PRES   REMARKS
FARMINGDALE    CLOUDY    72  69  90 S3        29.90S
ISLIP          PTSUNNY   72  68  87 S3        29.88F
SHIRLEY        MOSUNNY   73  69  87 S5        29.90F
WESTHAMPTON    PTSUNNY   73  69  87 S5        29.91F
MONTAUK POINT    N/A     73  69  87 SE7       29.92F
$$

NYZ052-065-067-211400-
HUDSON VALLEY

CITY           SKY/WX    TMP DP  RH WIND       PRES   REMARKS
WHITE PLAINS   FOG       66  66 100 CALM      29.89F VSB 1/4
NEWBURGH       FOG       64  64 100 CALM      29.91F VSB 3/4
MONTGOMERY     CLOUDY    65  61  87 CALM      29.90F
POUGHKEEPSIE   CLOUDY    65  62  90 CALM      29.89F FOG
ALBANY         PTSUNNY   66  61  84 S15G22    29.87F
$$

NJZ001-105-106-008-010-013-015-019>022-104-211400-
NEW JERSEY

CITY           SKY/WX    TMP DP  RH WIND       PRES   REMARKS
NEWARK/LIBERTY CLOUDY    70  67  90 CALM      29.89F FOG
TETERBORO      CLOUDY    70  66  87 CALM      29.88F FOG
CALDWELL       CLOUDY    66  63  90 CALM      29.90F FOG
MORRISTOWN     FOG       68  66  94 CALM      29.90F VSB 1
SOMERVILLE     CLOUDY    67  64  90 MISG      29.88F FOG
LINDEN         CLOUDY    72  70  94 CALM      29.91S FOG
SUSSEX         CLOUDY    66  61  84 CALM      29.90F
ANDOVER          N/A     66  61  84 CALM      29.90F
TRENTON        FOG       66  64  93 N5        29.89F VSB 1
MILLVILLE      CLOUDY    68  66  93 N6        29.87F FOG
ATLANTIC CITY  FOG       68  67  96 N8        29.86F VSB 1/2
WRIGHTSTOWN    CLOUDY    66  66 100 E5        29.86F
TOMS RIVER     CLOUDY    66  66 100 N5        29.88F
BELMAR         CLOUDY    66  63  88 CALM      29.89F VSB 1/2
$$

PAZ047>061-062-071-211400-
EASTERN PENNSYLVANIA

CITY           SKY/WX    TMP DP  RH WIND       PRES   REMARKS
PHILADELPHIA   CLOUDY    69  65  86 NE5       29.89F FOG
ALLENTOWN      CLOUDY    63  59  87 CALM      29.90F FOG
SCRANTON       SUNNY     65  58  78 CALM      29.88F
$$

CTZ002-004>006-009-010-012-RIZ004-006-007-MAZ004-011-015-211400-
SOUTHERN NEW ENGLAND
 IN CT

CITY           SKY/WX    TMP DP  RH WIND       PRES   REMARKS
BRADLEY INTL   CLOUDY    65  62  90 CALM      29.90F FOG
HARTFORD       LGT RAIN  65  64  97 S5        29.90F FOG
DANBURY        FOG       66  64  93 CALM      29.91F VSB 1/2
WTRBRY/OXFORD  FOG       66  63  88 CALM      29.92F VSB 1
BRIDGEPORT     LGT RAIN  71  69  93 E6        29.89F
MERIDEN        LGT RAIN  66  64  93 SE5       29.90F FOG
NEW HAVEN      PTSUNNY   72  68  87 S5        29.91F
CHESTER        CLOUDY    70  70 100 S6        29.93F FOG
GROTON         PTSUNNY   72  69  90 S9        29.90F
WILLIMANTIC    CLOUDY    65  64  97 MISG      29.93S FOG

 IN RI

CITY           SKY/WX    TMP DP  RH WIND       PRES   REMARKS
PROVIDENCE     PTSUNNY   74  67  78 S8        29.93F
BLOCK ISLAND   PTSUNNY   72  66  83 SE10      29.93F
WESTERLY       CLOUDY    73  68  84 SE9       29.92F

 IN MA

CITY           SKY/WX    TMP DP  RH WIND       PRES   REMARKS
BOSTON         CLOUDY    72  65  78 S12       29.93F
WORCESTER      CLOUDY    65  65 100 S10       29.95S FOG
WESTFIELD      FOG       62  61  96 N3        29.91F VSB 1/2
PROVINCETOWN   MOSUNNY   70  64  83 SE12      29.96F
NANTUCKET      PTSUNNY   67  64  90 SE8       29.97F
$$

ANZ330-335-338-340-345-350-353-355-211400-
COASTAL MARINE OBSERVATIONS


STATION/POSITION TIME  SKY/WX   TEMP    WIND        PRES    VSBY  WAVE
                                AIR SEA DIR/SP/G                  HT/PER
                 (UTC)          (F)     (DEG/KT/KT) (MB)    (MI)  (FT/S)
NY HARB ENTRANCE 1300            70 70  320/  4/  4 1012.6
4S FIRE IS       1300               69                N/A           5/ 8
20S FIRE ISLAND  1300            71 69  140/  6/  8 1012.2          4/ 6
23SW MTP         1300                                 N/A           4/ 6
HUDSON CANYON    1300            72 71  120/  8/ 10 1011.5          5/ 8
EXECUTION ROCKS  1300            69 70   90/  6/  8   N/A
WESTERN LI SOUND 1300            69     100/  6/  8   N/A           0
CENTRAL LI SOUND 1300            70 70  190/  4/  6   N/A           1/ 3
EASTERN LI SOUND 1200            70 68  160/  8/ 12   N/A
ROBBINS REEF     1300            68     350/  5/  5 1010.8
$$


>>>>>>>>>>>>>>>>>>>>>>>>>>>> KEY <<<<<<<<<<<<<<<<<<<<<<<<<<<
>                                                          <
>     SKY/WX - SKY CONDITION/PRESENT WEATHER               <
>     TMP    - TEMPERATURE IN FAHRENHEIT                   <
>     DP     - DEWPOINT IN FAHRENHEIT                      <
>     RH     - RELATIVE HUMIDITY IN PERCENT                <
>     WIND   - DIRECTION AND SPEED IN MPH                  <
>     PRES   - MEAN SEA LEVEL PRESSURE IN INCHES OF HG     <
>     WCI    - WIND CHILL INDEX                            <
>     VSB    - VISIBILITY IN MILES                         <
>     HX     - HEAT INDEX                                  <
>     TC     - TEMPERATURE IN CELSIUS                      <
>     VRB    - VARIABLE WIND DIRECTION                     <
>                                                          <
>>>>>>>>>>>>>>>>>>>>>>>>>>>> KEY <<<<<<<<<<<<<<<<<<<<<<<<<<<




USA.gov is the U.S. government's official web portal to all federal, state and local government web resources and services.